Weather History for Frederick, OK

Change the Weather History Date:

Tuesday, January 28, 2014

  Actual Average (KLTS) Record (KLTS)
Temperature  
Mean Temperature 23 °F -  
Max Temperature 34 °F 50 °F 80 °F (2002)
Min Temperature 12 °F 27 °F 6 °F (2009)
Degree Days  
Heating Degree Days 42    
Moisture  
Dew Point 1 °F    
Average Humidity 40    
Maximum Humidity 55    
Minimum Humidity 28    
Precipitation  
Precipitation 0.00 in - - ()
Sea Level Pressure  
Sea Level Pressure 30.45 in    
Wind  
Wind Speed 11 mph (North)    
Max Wind Speed 18 mph    
Max Gust Speed 18 mph    
Visibility 10 miles    
Events      
Averages and records for this station are not official NWS values.
T = Trace of Precipitation, MM = Missing Value Source: NWS Daily Summary

Daily Weather History Graph

Daily Weather History Graph

Search for Another Location

Airport:

Trip Planner

Search our weather history database for the weather conditions in past years. The results will help you decide how hot, cold, wet, or windy it might be!

Date:

Astronomy

Jan. 28, 2014 Rise Set
Actual Time 7:36 AM CST 6:01 PM CST
Civil Twilight 7:09 AM CST 6:28 PM CST
Nautical Twilight 6:39 AM CST 6:58 PM CST
Astronomical Twilight 6:09 AM CST 7:28 PM CST
Moon 5:17 AM CST (1/28) 3:55 PM CST (1/28)
Length of Visible Light 11h 18m
Length of Day
10h 25m
Waning Crescent, 7% of the Moon is Illuminated
Jan 28
Waning Crescent
Jan 30
New
Feb 6
First Quarter
Feb 14
Full
Feb 22
Last Quarter

Hourly Weather History & Observations

Time (CST) Temp. Windchill Dew Point Humidity Pressure Visibility Wind Dir Wind Speed Gust Speed Precip Events Conditions
12:53 AM 19.0 °F 3.6 °F -4.0 °F 36% 30.43 in 10.0 mi NNE 18.4 mph - N/A   Overcast
1:53 AM 19.0 °F 4.5 °F -6.0 °F 33% 30.41 in 10.0 mi NNE 16.1 mph - N/A   Overcast
2:53 AM 19.0 °F 4.5 °F -7.1 °F 31% 30.40 in 10.0 mi NNE 16.1 mph - N/A   Overcast
3:53 AM 18.0 °F 4.2 °F -9.0 °F 30% 30.41 in 10.0 mi NNE 13.8 mph - N/A   Scattered Clouds
4:53 AM 14.0 °F 2.9 °F -9.0 °F 35% 30.42 in 10.0 mi NNE 8.1 mph - N/A   Clear
5:53 AM 12.0 °F 4.1 °F -9.0 °F 39% 30.45 in 10.0 mi North 4.6 mph - N/A   Mostly Cloudy
6:53 AM 17.1 °F 5.8 °F -4.0 °F 39% 30.47 in 10.0 mi NE 9.2 mph - N/A   Overcast
7:53 AM 15.1 °F 6.4 °F 1.0 °F 54% 30.51 in 10.0 mi North 5.8 mph - N/A   Clear
8:53 AM 19.0 °F 6.8 °F 5.0 °F 54% 30.53 in 10.0 mi North 11.5 mph - N/A   Clear
9:53 AM 19.9 °F 9.3 °F 6.1 °F 55% 30.54 in 10.0 mi North 9.2 mph - N/A   Clear
10:53 AM 25.0 °F 16.3 °F 8.1 °F 49% 30.55 in 10.0 mi North 8.1 mph - N/A   Overcast
11:53 AM 27.0 °F 17.3 °F 9.0 °F 47% 30.53 in 10.0 mi North 10.4 mph - N/A   Clear
12:53 PM 28.9 °F 23.9 °F 7.0 °F 40% 30.49 in 10.0 mi Variable 4.6 mph - N/A   Clear
1:53 PM 30.9 °F 24.3 °F 5.0 °F 33% 30.45 in 10.0 mi Variable 6.9 mph 18.4 mph N/A   Clear
2:53 PM 34.0 °F 27.2 °F 5.0 °F 30% 30.43 in 10.0 mi NNW 8.1 mph - N/A   Clear
3:53 PM 33.1 °F 28.7 °F 3.0 °F 28% 30.42 in 10.0 mi North 4.6 mph - N/A   Clear
4:53 PM 34.0 °F 29.8 °F 3.9 °F 28% 30.41 in 10.0 mi North 4.6 mph - N/A   Clear
5:53 PM 30.0 °F 24.1 °F 3.0 °F 32% 30.42 in 10.0 mi North 5.8 mph - N/A   Clear
6:53 PM 26.1 °F - 1.9 °F 35% 30.42 in 10.0 mi Calm Calm - N/A   Clear
7:53 PM 25.0 °F - 3.0 °F 39% 30.43 in 9.0 mi Calm Calm - N/A   Clear
8:53 PM 19.9 °F 10.1 °F 1.9 °F 46% 30.42 in 10.0 mi SSW 8.1 mph - N/A   Clear
9:53 PM 18.0 °F 9.8 °F 1.0 °F 48% 30.42 in 10.0 mi SSW 5.8 mph - N/A   Clear
10:53 PM 19.0 °F 13.9 °F 3.0 °F 50% 30.41 in 10.0 mi SW 3.5 mph - N/A   Clear
11:53 PM 16.0 °F 7.4 °F 1.9 °F 54% 30.40 in 10.0 mi SSW 5.8 mph - N/A   Clear